Regional Weather Roundup
Issued by NWS Grand Forks, ND

Home | Current Version | Previous Version | Graphics & Text | Print | Product List | Glossary On
Versions: 1 2 3 4 5 6 7 8 9 10 11 12 13 14 15 16 17 18 19 20 21 22 23 24 25 26 27 28 29 30 31 32 33 34 35 36 37 38 39 40 41 42 43 44 45 46 47 48 49 50
000
ASUS43 KFGF 240410
RWRFGF
NATIONAL WEATHER SERVICE EASTERN NORTH DAKOTA/GRAND FORKS ND
1100 PM CDT SAT MAY 23 2015

 **SATELLITE DATA USED TO AUGMENT SKY COVER AT AUTOMATED STATIONS**
 *****  WEATHER ACROSS EASTERN NORTH DAKOTA  *****

CITY           SKY/WX    TMP DP  RH WIND       PRES   REMARKS
GRAND FORKS    MOCLDY    57  46  66 S7        30.10R
GRAND FRKS AFB MOCLDY    58  44  60 SW6       30.10S
GRAND FRKS NWS   N/A     57 N/A N/A SW7         N/A
DEVILS LAKE    CLOUDY    61  43  51 S6        30.10S
FARGO          PTCLDY    59  48  67 SE5       30.11S
WAHPETON ARPT  MOCLDY    61  46  59 E5        30.12F
$$

 ***** WEATHER ACROSS CENTRAL AND WESTERN NORTH DAKOTA  *****

CITY           SKY/WX    TMP DP  RH WIND       PRES   REMARKS
BISMARCK       CLOUDY    55  50  83 SE6       30.11R
MINOT          CLOUDY    62  46  55 S3        30.09R
JAMESTOWN      CLOUDY    60  49  66 CALM      30.11S
MINOT AFB      CLOUDY    61  48  63 SW6       30.08R
GARRISON         N/A     59  47  64 CALM      30.10R
WILLISTON      CLOUDY    59  43  55 CALM      30.09R
DICKINSON      CLOUDY    54  45  71 E5        30.09R
HETTINGER      CLOUDY    54  48  80 SE9       30.10S
$$

 *****  OTHER AIRPORT OBSERVATIONS IN OUR AREA  *****

CITY           SKY/WX    TMP DP  RH WIND       PRES   REMARKS
WALHALLA         N/A     64  43  45 S6        30.08R
GRAFTON AIRPOR FAIR      61  48  63 S8        30.10S
VALLEY CITY AR FAIR      57  48  72 CALM      30.12S
CANDO          FAIR      57  45  62 SW7       30.11S
CAVALIER APRT  FAIR      64  46  52 S8        30.08S
GWINNER        NOT AVBL
SHEYENNE NWR     N/A     56  50  79 E6        29.95S
ROLLA          MOCLDY    59  45  58 SW12      30.11S
 ***** THE ABOVE OBSERVATIONS ARE NON NWS ARE NOT QUALITY
       CONTROLLED AND MAY MIS-REPORT RAIN FOR SNOW...
$$

  *****  WEATHER ACROSS NORTHERN MINNESOTA  *****

CITY           SKY/WX    TMP DP  RH WIND       PRES   REMARKS
FLAG ISLAND    CLEAR     66  37  34 SW9       30.07R
WARROAD        FAIR      64  46  52 SW6       30.10S
ROSEAU         CLEAR     63  46  55 SW6       30.09F
HALLOCK        PTCLDY    61  46  59 SW8       30.09R
THF RVR FALLS  MOCLDY    59  43  55 SW6       30.12S
BAUDETTE       CLEAR     58  45  62 S5        30.09S
WASKISH        CLEAR     61  45  55 CALM      30.12R
CROOKSTON      FAIR      57  45  62 S8        30.12S
STEPHEN NDAWN    N/A     63  45  51 SW8         N/A
GREENBUSH NDAW   N/A     59  48  67 SW3         N/A
$$
  *****  WEATHER ACROSS CENTRAL AND WEST MINNESOTA  *****

CITY           SKY/WX    TMP DP  RH WIND       PRES   REMARKS
FOSSTON        PTCLDY    54  43  66 CALM      30.15S
BEMIDJI        CLEAR     58  43  57 S3        30.15R
PARK RAPIDS    CLOUDY    59  44  57 CALM      30.15S
ELBOW LAKE     CLOUDY    62  48  60 E6        30.13S
WADENA         CLOUDY    55  48  76 CALM      30.15R
DETROIT LAKES  CLEAR     59  48  67 CALM      30.15F
MOORHEAD       FAIR      61  48  63 SE3       30.13S
FERGUS FALLS   CLOUDY    61  46  59 CALM      30.14S
MORRIS MN      CLOUDY    63  48  59 E8        30.12S
STAPLES        CLOUDY    59  46  63 CALM      30.16R
$$
  *****  WEATHER ELSEWHERE ACROSS MINNESOTA  *****

CITY           SKY/WX    TMP DP  RH WIND       PRES   REMARKS
DULUTH         CLEAR     59  42  53 W5        30.16R
INTRNTL FALLS  CLEAR     51  42  71 W3        30.09S
ELY            CLEAR     61  43  51 SW7       30.13R
CLOQUET        CLEAR     55  41  58 W3        30.16S
WHEATON        CLOUDY    61  46  59 E7        30.13F
BRAINERD       CLOUDY    57  48  72 CALM      30.16S
HIBBING        CLEAR     49  41  74 CALM      30.14S
ALEXANDRIA     CLOUDY    61  46  57 E8        30.15S
SAINT CLOUD    CLOUDY    62  47  57 E3        30.15R
MINNEAPOLIS    MOCLDY    63  46  54 E7        30.14R
$$

  *****  WEATHER ACROSS SOUTH DAKOTA  *****

CITY           SKY/WX    TMP DP  RH WIND       PRES   REMARKS
SIOUX FALLS    LGT RAIN  61  55  81 E3        30.07F
BROOKINGS      MOCLDY    61  52  72 S5        30.09F
WATERTOWN      MOCLDY    59  48  67 E7        30.10R
HURON          MOCLDY    56  52  86 CALM      30.07S
SISSETON         N/A     61  50  67 SE8       30.11R
ABERDEEN       PTCLDY    59  50  72 E6        30.09R
MITCHELL       CLOUDY    59  55  87 E5        30.06F
PIERRE         CLOUDY    57  54  89 NE6       30.04F
MOBRIDGE       CLOUDY    58  54  86 CALM      30.07R
RAPID CITY     CLOUDY    54  52  93 E13       30.03R
$$

  *****  SOME WEATHER IN NEARBY STATES *****

CITY           SKY/WX    TMP DP  RH WIND       PRES   REMARKS
GLASGOW MT     PTCLDY    58  42  55 SE6       30.09R
GREAT FALLS MT CLOUDY    52  49  89 N5        30.11R
CHEYENNE WY    CLOUDY    46  44  93 SE5       29.97R
SCOTTSBLUFF NE LGT RAIN  55  53  93 E15       29.92F
OMAHA NE       CLOUDY    62  60  93 E9        30.01F
DES MOINES IA  CLOUDY    69  53  56 SE7       30.09F
DAVENPORT IA   MOCLDY    63  47  55 SE7       30.16S
CHICAGO IL     PTCLDY    63  44  50 S5        30.20R
EAU CLAIRE WI  CLOUDY    60  45  57 NE6       30.15S
LA CROSSE WI   MOCLDY    63  49  60 SE5       30.14R
$$

  *****  SOME NATIONAL WEATHER *****

CITY           SKY/WX    TMP DP  RH WIND       PRES   REMARKS
LA GUARDIA NY  PTCLDY    59  44  57 S13       30.35S
RALEIGH NC     PTCLDY    65  50  58 SE7       30.39S
ATLANTA GA     PTCLDY    70  48  45 E5        30.30F
NEW ORLEANS LA PTCLDY    78  70  76 SE8       30.11S
OKLAHOMA CITY  LGT RAIN  62  61  96 SE9       30.00R
ALBUQUERQUE NM MOCLDY    65  24  21 N12       29.96R
SALT LAKE CITY PTCLDY    55  46  71 W5        29.94R
LOS ANGELES CA MOCLDY    60  53  77 W12       30.04S
BOISE ID       MOCLDY    69  50  50 NW6       29.84S
SEATTLE WA     CLOUDY    59  51  75 SW6       30.16S
$$

*** WEATHER ACROSS MANITOBA...SASKATCHEWAN AND ONTARIO ***
                ***ONTARIO***

CITY           SKY/WX    TMP DP  RH WIND       PRES   REMARKS
GERALDTON      PTCLDY    54  45  71 S2        30.02F
THUNDER BAY    CLEAR     55  45  67 NW5       30.06S
SIOUX LOOKOUT  MOCLDY    57  43  58 CALM      30.04S
TORONTO        CLEAR     59  27  29 SW7       30.26R
BIG TROUT LK   CLEAR     34  28  80 N3        30.08F
PICKLE LAKE    NOT AVBL
DRYDEN         CLEAR     61  41  48 S9        30.05F
KENORA         CLEAR     63  39  42 SW8       30.07R
$$
                *** MANITOBA***

CITY           SKY/WX    TMP DP  RH WIND       PRES   REMARKS
BRANDON        PTCLDY    57  43  58 CALM      30.06R
DAUPHIN        CLEAR     59  48  67 E5        30.09R
ISLAND LAKE    CLEAR     45  34  65 N2        30.11F
PILOT MOUND      N/A     59  43  55 S12         N/A
THE PAS        PTCLDY    50  36  57 E3        30.12S
THOMPSON       PTCLDY    41  30  65 CALM      30.09F
WINNIPEG       CLEAR     68  37  32 S12       30.05R
LYNN LAKE      CLEAR     52  27  37 W7        30.10F
CHURCHILL      LGT RAIN  45  37  76 N15G21    29.86R
GILLAM         PTCLDY    46  28  49 SW8       30.02F
$$
                ***SASKATCHEWAN***

CITY           SKY/WX    TMP DP  RH WIND       PRES   REMARKS
ESTEVAN        CLOUDY    57  43  58 S5        30.08R
KINDERSLEY     MOCLDY    61  28  29 SE10      30.09R
LLOYDMINSTER   PTCLDY    61  36  39 SE7       30.09R
PRINCE ALBERT  MOCLDY    63  46  55 E7        30.07R
REGINA         PTCLDY    61  34  36 W7        30.09R
YORKTON        CLOUDY    61  45  55 NE6       30.08R
N. BATTLEFORD  PTCLDY    61  32  33 NE10      30.08S
LA RONGE       PTCLDY    48  32  53 CALM      30.12S
SASKATOON      PTCLDY    61  37  41 SW5       30.07S
SWIFT CURRENT  CLEAR     59  30  33 SE5       30.11R
$$
NOTE: THESE ARE AUTOMATED STATIONS WITH LIMITED QUALITY CONTROL
      "FAIR" INDICATES FEW OR NO CLOUDS BELOW 12,000 FEET WITH NO
      SIGNIFICANT WEATHER AND/OR OBSTRUCTIONS TO VISIBILITY.
      SKY/WX - SKY CONDITION AND SIGNIFICANT WEATHER.
      TMP - AIR TEMPERATURE.    DP   - DEWPOINT TEMPERATURE.
      RH  - RELATIVE HUMIDITY.  PRES - PRESSURE.
      HX  - HEAT INDEX.         WCI  - WIND CHILL INDEX.
$


USA.gov is the U.S. government's official web portal to all federal, state and local government web resources and services.